| time (UTC) | temp F | wind direction | speed knots | gust knots | rain 1hr in | rain 24hr in | rain mn in | humidity % | barometer mb |
| 20260506184547 | 44 | 290 | 1.7 | 3.5 | 0.00 | 0.48 | 0.43 | 93 | 1012.0 |
| 20260506183146 | 44 | 305 | 0.9 | 3.5 | 0.00 | 0.48 | 0.43 | 93 | 1011.9 |
| 20260506181543 | 44 | 289 | 1.7 | 3.5 | 0.00 | 0.48 | 0.43 | 93 | 1011.7 |
| 20260506180042 | 45 | 284 | 2.6 | 4.3 | 0.00 | 0.64 | 0.43 | 93 | 1011.4 |
| 20260506174549 | 45 | 282 | 3.5 | 5.2 | 0.00 | 0.64 | 0.43 | 92 | 1011.3 |
| 20260506173143 | 46 | 309 | 2.6 | 3.5 | 0.00 | 0.64 | 0.43 | 91 | 1011.2 |
| 20260506171537 | 46 | 292 | 2.6 | 6.1 | 0.00 | 0.64 | 0.43 | 90 | 1011.3 |
| 20260506170037 | 47 | 307 | 0.9 | 4.3 | 0.00 | 0.64 | 0.43 | 90 | 1011.0 |
| 20260506164537 | 47 | 309 | 1.7 | 3.5 | 0.00 | 0.64 | 0.43 | 89 | 1011.1 |
| 20260506163137 | 48 | 311 | 2.6 | 5.2 | 0.00 | 0.64 | 0.43 | 87 | 1011.1 |
| 20260506161605 | 49 | 303 | 2.6 | 4.3 | 0.00 | 0.64 | 0.43 | 87 | 1011.0 |
| 20260506160054 | 49 | 261 | 1.7 | 6.1 | 0.00 | 0.65 | 0.43 | 87 | 1011.1 |
| 20260506154554 | 49 | 85 | 0.0 | 3.5 | 0.00 | 0.65 | 0.43 | 88 | 1011.1 |
| 20260506153151 | 49 | 94 | 1.7 | 5.2 | 0.00 | 0.65 | 0.43 | 88 | 1011.1 |
| 20260506151548 | 49 | 263 | 2.6 | 7.0 | 0.00 | 0.65 | 0.43 | 88 | 1011.3 |
| 20260506150057 | 50 | 351 | 0.0 | 3.5 | 0.00 | 0.65 | 0.43 | 88 | 1011.0 |
| 20260506144602 | 50 | 150 | 0.9 | 5.2 | 0.00 | 0.65 | 0.43 | 89 | 1011.1 |
| 20260506143144 | 50 | 28 | 0.9 | 4.3 | 0.00 | 0.65 | 0.43 | 91 | 1011.3 |
| 20260506141542 | 49 | 72 | 0.0 | 0.0 | 0.00 | 0.65 | 0.43 | 91 | 1011.3 |
| 20260506140057 | 49 | 72 | 0.0 | 0.0 | 0.00 | 0.65 | 0.43 | 93 | 1011.3 |
| 20260506134544 | 48 | 62 | 0.0 | 0.0 | 0.00 | 0.65 | 0.43 | 94 | 1011.3 |
| 20260506133142 | 48 | 62 | 0.0 | 0.0 | 0.00 | 0.65 | 0.43 | 95 | 1011.3 |
| 20260506131545 | 48 | 61 | 0.0 | 5.2 | 0.00 | 0.65 | 0.43 | 96 | 1011.3 |
| 20260506130107 | 48 | 62 | 0.9 | 5.2 | 0.00 | 0.65 | 0.43 | 95 | 1011.4 |
| 20260506124540 | 50 | 24 | 0.0 | 5.2 | 0.00 | 0.65 | 0.43 | 97 | 1011.3 |
| 20260506123138 | 49 | 37 | 0.0 | 3.5 | 0.00 | 0.65 | 0.43 | 97 | 1011.2 |
| 20260506121559 | 48 | 76 | 0.0 | 0.0 | 0.00 | 0.65 | 0.43 | 98 | 1011.3 |
| 20260506120057 | 47 | 74 | 0.0 | 0.0 | 0.00 | 0.65 | 0.43 | 97 | 1011.3 |
| 20260506114553 | 47 | 71 | 0.0 | 5.2 | 0.00 | 0.65 | 0.43 | 97 | 1011.3 |
| 20260506113153 | 47 | 54 | 1.7 | 3.5 | 0.00 | 0.65 | 0.43 | 97 | 1011.3 |
| 20260506111551 | 47 | 72 | 0.0 | 3.5 | 0.01 | 0.65 | 0.43 | 97 | 1011.3 |
| 20260506110048 | 46 | 69 | 2.6 | 7.8 | 0.03 | 0.67 | 0.43 | 97 | 1011.3 |
| 20260506104555 | 46 | 68 | 0.9 | 2.6 | 0.04 | 0.67 | 0.43 | 97 | 1011.3 |
| 20260506103146 | 45 | 71 | 0.9 | 3.5 | 0.05 | 0.67 | 0.43 | 96 | 1011.4 |
| 20260506101544 | 46 | 63 | 0.9 | 3.5 | 0.04 | 0.66 | 0.42 | 96 | 1011.2 |
| 20260506100058 | 46 | 67 | 0.0 | 5.2 | 0.02 | 0.74 | 0.39 | 96 | 1011.1 |
| 20260506094544 | 47 | 32 | 2.6 | 7.0 | 0.02 | 0.73 | 0.39 | 95 | 1010.8 |
| 20260506093143 | 47 | 35 | 0.0 | 5.2 | 0.02 | 0.72 | 0.38 | 95 | 1010.8 |
| 20260506091544 | 47 | 122 | 0.0 | 6.1 | 0.02 | 0.72 | 0.38 | 94 | 1010.5 |
| 20260506090043 | 47 | 168 | 3.5 | 7.8 | 0.02 | 0.83 | 0.37 | 94 | 1010.3 |
| 20260506084541 | 47 | 161 | 5.2 | 7.0 | 0.01 | 0.83 | 0.36 | 94 | 1010.1 |
| 20260506083140 | 46 | 234 | 0.9 | 6.1 | 0.00 | 0.82 | 0.35 | 94 | 1010.0 |
| 20260506081550 | 46 | 217 | 0.9 | 7.8 | 0.00 | 0.82 | 0.35 | 95 | 1010.0 |
| 20260506073133 | 45 | 173 | 4.3 | 8.7 | 0.00 | 0.93 | 0.35 | 97 | 1009.4 |
| 20260506071555 | 44 | 180 | 2.6 | 8.7 | 0.01 | 0.93 | 0.35 | 97 | 1009.2 |
| 20260506061550 | 45 | 230 | 0.0 | 4.3 | 0.05 | 0.95 | 0.35 | 98 | 1008.8 |
| 20260506044549 | 45 | 264 | 0.0 | 0.0 | 0.06 | 0.85 | 0.24 | 97 | 1007.9 |
| 20260506043141 | 45 | 264 | 0.0 | 0.0 | 0.06 | 0.83 | 0.21 | 98 | 1007.7 |
| 20260506041551 | 45 | 228 | 0.0 | 0.0 | 0.06 | 0.80 | 0.19 | 98 | 1007.5 |
| 20260506040040 | 45 | 228 | 0.0 | 0.0 | 0.09 | 0.82 | 0.17 | 98 | 1007.4 |
| 20260506034552 | 45 | 228 | 0.0 | 0.0 | 0.13 | 0.82 | 0.17 | 98 | 1007.5 |
| 20260506033136 | 45 | 273 | 0.0 | 0.0 | 0.12 | 0.80 | 0.16 | 97 | 1007.9 |
| 20260506031547 | 45 | 272 | 0.0 | 3.5 | 0.09 | 0.77 | 0.13 | 97 | 1008.0 |
| 20260506030036 | 45 | 285 | 0.9 | 2.6 | 0.05 | 0.83 | 0.08 | 97 | 1007.9 |
| 20260506024534 | 45 | 284 | 0.9 | 2.6 | 0.03 | 0.80 | 0.05 | 97 | 1008.1 |
| 20260506023135 | 45 | 284 | 1.7 | 2.6 | 0.02 | 0.80 | 0.04 | 97 | 1008.1 |
| 20260506021553 | 45 | 284 | 0.9 | 2.6 | 0.02 | 0.79 | 0.03 | 97 | 1008.1 |
| 20260506020051 | 45 | 284 | 0.9 | 3.5 | 0.02 | 0.91 | 0.03 | 97 | 1008.1 |
| 20260506014550 | 45 | 327 | 0.9 | 2.6 | 0.00 | 0.90 | 0.02 | 97 | 1008.4 |
| 20260506013147 | 45 | 327 | 0.0 | 0.0 | 0.00 | 0.90 | 0.02 | 97 | 1008.5 |
| 20260506011552 | 45 | 327 | 0.0 | 0.0 | 0.00 | 0.90 | 0.02 | 97 | 1008.5 |
| 20260506010058 | 45 | 327 | 0.0 | 1.7 | 0.00 | 0.96 | 0.02 | 97 | 1008.7 |
| 20260506004544 | 45 | 327 | 0.9 | 3.5 | 0.00 | 0.96 | 0.02 | 97 | 1009.1 |
| 20260506003145 | 45 | 11 | 0.0 | 0.0 | 0.00 | 0.96 | 0.02 | 97 | 1009.2 |
| 20260506001550 | 46 | 11 | 0.0 | 0.0 | 0.00 | 0.96 | 0.02 | 97 | 1009.5 |
| 20260506000043 | 45 | 9 | 0.0 | 3.5 | 0.00 | 1.05 | 0.02 | 97 | 1009.7 |
| 20260505234541 | 46 | 11 | 0.0 | 1.7 | 0.01 | 1.05 | 0.02 | 97 | 1010.0 |
| 20260505233138 | 46 | 12 | 0.0 | 1.7 | 0.01 | 1.05 | 0.02 | 97 | 1010.1 |
| 20260505231540 | 46 | 9 | 2.6 | 3.5 | 0.02 | 1.05 | 0.02 | 97 | 1010.3 |
| 20260505230041 | 46 | 11 | 0.0 | 2.6 | 0.02 | 1.22 | 0.02 | 97 | 1010.6 |
| 20260505224539 | 46 | 9 | 1.7 | 3.5 | 0.01 | 1.21 | 0.01 | 96 | 1010.7 |
| 20260505223134 | 46 | 356 | 0.0 | 0.9 | 0.02 | 1.21 | 0.01 | 96 | 1010.9 |
| 20260505221551 | 47 | 351 | 0.0 | 3.5 | 0.01 | 1.20 | 0.00 | 96 | 1010.9 |
| 20260505220049 | 47 | 298 | 2.6 | 4.3 | 0.01 | 1.24 | 1.20 | 96 | 1011.2 |
| 20260505214559 | 47 | 14 | 0.0 | 1.7 | 0.02 | 1.24 | 1.20 | 96 | 1011.4 |
| 20260505213147 | 47 | 14 | 0.0 | 3.5 | 0.02 | 1.24 | 1.20 | 96 | 1011.5 |
| 20260505211547 | 47 | 259 | 0.0 | 5.2 | 0.02 | 1.24 | 1.20 | 96 | 1011.5 |
| 20260505210047 | 47 | 238 | 0.9 | 3.5 | 0.02 | 1.24 | 1.20 | 96 | 1011.6 |
| 20260505204545 | 47 | 190 | 2.6 | 7.0 | 0.02 | 1.23 | 1.19 | 96 | 1011.9 |
| 20260505203145 | 47 | 294 | 0.0 | 2.6 | 0.01 | 1.22 | 1.18 | 95 | 1011.8 |
| 20260505201550 | 47 | 293 | 0.0 | 2.6 | 0.00 | 1.21 | 1.17 | 95 | 1011.5 |
| 20260505200042 | 47 | 223 | 0.0 | 4.3 | 0.01 | 1.21 | 1.17 | 94 | 1011.5 |
| 20260505194542 | 47 | 211 | 3.5 | 7.0 | 0.02 | 1.21 | 1.17 | 94 | 1011.2 |
| 20260505193142 | 47 | 234 | 1.7 | 4.3 | 0.02 | 1.21 | 1.17 | 93 | 1011.1 |
| 20260505191601 | 48 | 182 | 3.5 | 9.6 | 0.02 | 1.21 | 1.17 | 93 | 1011.0 |
| 20260505190056 | 47 | 166 | 4.3 | 10.4 | 0.02 | 1.21 | 1.17 | 94 | 1010.8 |